QPF
0.00 0.00 0.00 0.00 0.00 0.00 0.00 0.00 0.00 0.00 0.00 0.00 0.00 0.00 0.00 0.00 0.00 0.00 0.00 0.00 0.00 0.00 0.00 0.00 0.00 0.00 0.01 0.01 0.01 0.01 0.01 0.01 0.02 0.02 0.02 0.02 0.02 0.02
0.00 0.00 0.00 0.00 0.00 0.00 0.00 0.00 0.00 0.00 0.00 0.00 0.00 0.00 0.00 0.00 0.00 0.00 0.00 0.00 0.00 0.00 0.00 0.00 0.00 0.01 0.01 0.01 0.01 0.02 0.02 0.02 0.02 0.02 0.02 0.02 0.02 0.02
0.00 0.00 0.00 0.00 0.00 0.00 0.00 0.00 0.00 0.00 0.00 0.00 0.00 0.00 0.00 0.00 0.00 0.00 0.00 0.00 0.00 0.00 0.00 0.00 0.01 0.01 0.01 0.02 0.02 0.02 0.02 0.03 0.03 0.03 0.03 0.03 0.03 0.02
0.00 0.00 0.00 0.00 0.00 0.00 0.00 0.00 0.00 0.00 0.00 0.00 0.00 0.00 0.00 0.00 0.00 0.00 0.00 0.00 0.00 0.00 0.00 0.00 0.01 0.02 0.02 0.02 0.03 0.02 0.02 0.02 0.03 0.03 0.04 0.04 0.04 0.04
0.01 0.01 0.00 0.00 0.00 0.00 0.00 0.00 0.00 0.00 0.00 0.00 0.00 0.00 0.00 0.00 0.00 0.00 0.00 0.00 0.00 0.00 0.00 0.00 0.01 0.01 0.02 0.02 0.02 0.02 0.01 0.01 0.01 0.01 0.02 0.03 0.03 0.04
0.00 0.00 0.00 0.00 0.00 0.00 0.00 0.00 0.00 0.00 0.00 0.00 0.00 0.00 0.00 0.00 0.00 0.00 0.00 0.00 0.00 0.00 0.00 0.00 0.00 0.01 0.01 0.01 0.01 0.02 0.02 0.01 0.01 0.01 0.01 0.01 0.01 0.01
0.00 0.00 0.00 0.00 0.00 0.00 0.01 0.01 0.01 0.01 0.01 0.01 0.01 0.01 0.01 0.01 0.01 0.01 0.01 0.01 0.00 0.00 0.00 0.00 0.00 0.00 0.00 0.00 0.01 0.01 0.01 0.01 0.01 0.01 0.00 0.00 0.00 0.00
0.00 0.00 0.00 0.00 0.00 0.00 0.00 0.01 0.01 0.02 0.02 0.02 0.02 0.02 0.02 0.01 0.01 0.01 0.02 0.02 0.02 0.01 0.01 0.01 0.00 0.00 0.00 0.00 0.01 0.01 0.01 0.01 0.01 0.01 0.01 0.01 0.00 0.00
0.00 0.00 0.00 0.00 0.00 0.00 0.00 0.00 0.00 0.01 0.01 0.02 0.03 0.03 0.02 0.02 0.03 0.03 0.03 0.03 0.02 0.02 0.03 0.03 0.01 0.01 0.01 0.01 0.01 0.01 0.01 0.01 0.01 0.01 0.01 0.01 0.01 0.00
0.00 0.00 0.00 0.00 0.00 0.00 0.00 0.00 0.00 0.00 0.01 0.01 0.01 0.02 0.02 0.02 0.03 0.04 0.03 0.02 0.01 0.01 0.03 0.04 0.02 0.01 0.01 0.01 0.01 0.01 0.01 0.01 0.01 0.01 0.01 0.01 0.01 0.01
0.00 0.00 0.00 0.00 0.00 0.01 0.01 0.01 0.00 0.00 0.01 0.01 0.01 0.01 0.02 0.02 0.03 0.03 0.04 0.03 0.02 0.02 0.02 0.03 0.02 0.01 0.01 0.01 0.02 0.02 0.02 0.01 0.01 0.02 0.01 0.02 0.02 0.02
0.00 0.00 0.00 0.00 0.00 0.01 0.01 0.01 0.01 0.01 0.01 0.01 0.01 0.01 0.01 0.02 0.03 0.04 0.04 0.05 0.04 0.04 0.03 0.03 0.03 0.02 0.02 0.01 0.01 0.01 0.02 0.02 0.02 0.02 0.02 0.02 0.02 0.03
0.00 0.00 0.00 0.00 0.00 0.00 0.01 0.01 0.01 0.01 0.01 0.01 0.01 0.01 0.01 0.01 0.02 0.02 0.03 0.04 0.05 0.05 0.05 0.05 0.05 0.04 0.04 0.03 0.02 0.02 0.03 0.03 0.02 0.02 0.03 0.03 0.04 0.04
0.01 0.00 0.00 0.00 0.00 0.00 0.00 0.00 0.01 0.01 0.01 0.01 0.02 0.02 0.02 0.02 0.02 0.02 0.02 0.03 0.04 0.05 0.05 0.05 0.06 0.07 0.06 0.05 0.04 0.04 0.05 0.06 0.05 0.05 0.04 0.04 0.05 0.06
0.01 0.01 0.01 0.00 0.00 0.00 0.01 0.01 0.01 0.01 0.01 0.02 0.03 0.03 0.03 0.03 0.02 0.02 0.02 0.02 0.02 0.03 0.04 0.04 0.06 0.07 0.07 0.07 0.07 0.07 0.07 0.08 0.08 0.08 0.07 0.06 0.06 0.06
0.01 0.01 0.01 0.01 0.01 0.01 0.01 0.01 0.01 0.01 0.02 0.03 0.02 0.03 0.02 0.02 0.02 0.02 0.02 0.01 0.01 0.02 0.03 0.04 0.05 0.05 0.06 0.07 0.07 0.08 0.09 0.11 0.11 0.10 0.10 0.09 0.07 0.06
0.01 0.01 0.01 0.01 0.02 0.01 0.01 0.02 0.02 0.02 0.02 0.02 0.01 0.01 0.02 0.01 0.02 0.02 0.02 0.01 0.01 0.02 0.03 0.03 0.03 0.03 0.04 0.05 0.08 0.09 0.10 0.12 0.13 0.12 0.11 0.11 0.11 0.09
0.02 0.01 0.01 0.02 0.02 0.02 0.02 0.03 0.03 0.02 0.02 0.01 0.01 0.01 0.01 0.01 0.01 0.01 0.01 0.01 0.02 0.02 0.02 0.02 0.02 0.02 0.02 0.03 0.08 0.10 0.11 0.14 0.13 0.11 0.08 0.09 0.13 0.15
0.02 0.02 0.02 0.03 0.03 0.03 0.03 0.03 0.03 0.02 0.01 0.01 0.01 0.00 0.00 0.00 0.01 0.01 0.01 0.01 0.02 0.02 0.02 0.01 0.01 0.01 0.02 0.05 0.08 0.12 0.12 0.12 0.11 0.10 0.08 0.08 0.13 0.18
0.02 0.03 0.03 0.03 0.04 0.04 0.03 0.04 0.03 0.01 0.01 0.00 0.00 0.01 0.00 0.00 0.00 0.00 0.01 0.01 0.01 0.01 0.01 0.01 0.01 0.01 0.02 0.04 0.09 0.12 0.12 0.09 0.08 0.08 0.08 0.09 0.13 0.15
0.03 0.03 0.03 0.03 0.04 0.03 0.03 0.03 0.01 0.01 0.00 0.00 0.00 0.00 0.00 0.00 0.00 0.00 0.00 0.01 0.01 0.01 0.02 0.02 0.02 0.02 0.01 0.01 0.05 0.08 0.10 0.11 0.09 0.08 0.07 0.08 0.07 0.06
0.03 0.03 0.02 0.03 0.03 0.03 0.03 0.02 0.01 0.01 0.00 0.00 0.00 0.00 0.00 0.00 0.00 0.00 0.00 0.00 0.00 0.01 0.01 0.01 0.01 0.01 0.00 0.01 0.03 0.05 0.06 0.05 0.06 0.06 0.05 0.04 0.02 0.03
0.03 0.03 0.02 0.02 0.02 0.02 0.02 0.01 0.01 0.01 0.00 0.00 0.00 0.00 0.00 0.00 0.00 0.00 0.00 0.00 0.00 0.00 0.00 0.00 0.00 0.00 0.00 0.01 0.02 0.02 0.02 0.02 0.01 0.02 0.04 0.04 0.03 0.04
MSLP
1021.32 1021.55 1021.73 1021.85 1021.88 1021.81 1021.66 1021.43 1021.14 1020.81 1020.48 1020.14 1019.82 1019.51 1019.23 1018.95 1018.69 1018.43 1018.19 1017.95 1017.71 1017.48 1017.23 1016.97 1016.67 1016.33 1015.96 1015.57 1015.17 1014.79 1014.46 1014.21 1014.06 1014.01 1014.07 1014.21 1014.40 1014.60
1021.50 1021.65 1021.75 1021.79 1021.74 1021.61 1021.39 1021.12 1020.79 1020.44 1020.08 1019.73 1019.38 1019.05 1018.72 1018.41 1018.10 1017.79 1017.49 1017.20 1016.93 1016.66 1016.40 1016.13 1015.85 1015.54 1015.20 1014.84 1014.47 1014.13 1013.83 1013.59 1013.45 1013.41 1013.46 1013.59 1013.78 1013.99
1021.66 1021.74 1021.77 1021.73 1021.62 1021.42 1021.16 1020.85 1020.49 1020.12 1019.75 1019.38 1019.02 1018.66 1018.30 1017.93 1017.56 1017.20 1016.83 1016.48 1016.15 1015.83 1015.53 1015.24 1014.95 1014.65 1014.33 1014.01 1013.68 1013.38 1013.11 1012.91 1012.79 1012.76 1012.82 1012.95 1013.14 1013.35
1021.80 1021.82 1021.78 1021.67 1021.50 1021.26 1020.95 1020.61 1020.24 1019.85 1019.47 1019.08 1018.70 1018.31 1017.91 1017.50 1017.08 1016.64 1016.21 1015.79 1015.38 1015.00 1014.65 1014.31 1013.99 1013.68 1013.38 1013.07 1012.78 1012.51 1012.29 1012.12 1012.03 1012.02 1012.09 1012.23 1012.43 1012.67
1021.89 1021.85 1021.75 1021.59 1021.36 1021.08 1020.74 1020.37 1019.98 1019.57 1019.17 1018.77 1018.37 1017.95 1017.52 1017.07 1016.59 1016.10 1015.60 1015.10 1014.63 1014.18 1013.76 1013.37 1013.01 1012.67 1012.35 1012.05 1011.78 1011.54 1011.35 1011.22 1011.16 1011.18 1011.28 1011.45 1011.67 1011.93
1021.91 1021.81 1021.66 1021.45 1021.18 1020.85 1020.48 1020.08 1019.66 1019.24 1018.81 1018.39 1017.96 1017.52 1017.06 1016.57 1016.06 1015.52 1014.98 1014.43 1013.89 1013.38 1012.90 1012.45 1012.03 1011.65 1011.31 1010.99 1010.72 1010.50 1010.33 1010.23 1010.21 1010.27 1010.40 1010.60 1010.86 1011.15
1021.84 1021.68 1021.48 1021.22 1020.90 1020.53 1020.13 1019.70 1019.25 1018.80 1018.35 1017.90 1017.44 1016.98 1016.50 1016.00 1015.47 1014.92 1014.36 1013.78 1013.21 1012.65 1012.12 1011.62 1011.15 1010.71 1010.32 1009.98 1009.69 1009.46 1009.31 1009.23 1009.24 1009.33 1009.50 1009.74 1010.04 1010.37
1021.67 1021.46 1021.20 1020.89 1020.53 1020.12 1019.68 1019.22 1018.74 1018.25 1017.77 1017.30 1016.83 1016.35 1015.87 1015.38 1014.86 1014.32 1013.77 1013.20 1012.62 1012.05 1011.48 1010.93 1010.41 1009.92 1009.48 1009.09 1008.76 1008.51 1008.35 1008.28 1008.31 1008.43 1008.63 1008.91 1009.25 1009.63
1021.43 1021.15 1020.84 1020.48 1020.08 1019.64 1019.16 1018.67 1018.16 1017.64 1017.14 1016.64 1016.16 1015.69 1015.22 1014.75 1014.27 1013.78 1013.27 1012.73 1012.18 1011.61 1011.04 1010.46 1009.89 1009.35 1008.84 1008.39 1008.01 1007.72 1007.53 1007.45 1007.47 1007.61 1007.84 1008.15 1008.52 1008.94
1021.14 1020.80 1020.43 1020.03 1019.60 1019.13 1018.63 1018.11 1017.58 1017.05 1016.52 1016.02 1015.54 1015.08 1014.64 1014.22 1013.79 1013.36 1012.91 1012.44 1011.93 1011.39 1010.82 1010.23 1009.62 1009.02 1008.45 1007.92 1007.47 1007.12 1006.88 1006.76 1006.77 1006.90 1007.13 1007.47 1007.87 1008.31
1020.84 1020.45 1020.04 1019.62 1019.16 1018.67 1018.16 1017.63 1017.08 1016.54 1016.02 1015.51 1015.04 1014.61 1014.21 1013.84 1013.47 1013.11 1012.74 1012.33 1011.87 1011.37 1010.81 1010.21 1009.57 1008.91 1008.27 1007.66 1007.13 1006.70 1006.39 1006.21 1006.18 1006.29 1006.52 1006.86 1007.28 1007.74
1020.58 1020.15 1019.72 1019.27 1018.81 1018.32 1017.81 1017.28 1016.74 1016.20 1015.68 1015.19 1014.73 1014.32 1013.96 1013.63 1013.33 1013.03 1012.72 1012.37 1011.97 1011.50 1010.96 1010.34 1009.67 1008.96 1008.25 1007.56 1006.94 1006.42 1006.03 1005.79 1005.70 1005.77 1005.98 1006.31 1006.73 1007.21
1020.39 1019.95 1019.50 1019.05 1018.59 1018.11 1017.61 1017.09 1016.56 1016.04 1015.53 1015.05 1014.61 1014.22 1013.88 1013.59 1013.33 1013.07 1012.81 1012.51 1012.15 1011.71 1011.17 1010.55 1009.86 1009.10 1008.32 1007.56 1006.86 1006.26 1005.78 1005.47 1005.32 1005.34 1005.52 1005.83 1006.24 1006.72
1020.29 1019.84 1019.39 1018.95 1018.50 1018.03 1017.55 1017.05 1016.54 1016.03 1015.53 1015.06 1014.63 1014.26 1013.93 1013.65 1013.41 1013.18 1012.95 1012.68 1012.34 1011.92 1011.39 1010.77 1010.06 1009.27 1008.45 1007.64 1006.87 1006.20 1005.65 1005.27 1005.06 1005.03 1005.17 1005.45 1005.84 1006.31
1020.27 1019.82 1019.38 1018.95 1018.51 1018.07 1017.60 1017.12 1016.63 1016.13 1015.64 1015.18 1014.75 1014.37 1014.04 1013.76 1013.52 1013.30 1013.07 1012.81 1012.49 1012.08 1011.58 1010.97 1010.26 1009.47 1008.63 1007.79 1006.99 1006.27 1005.68 1005.24 1004.98 1004.90 1004.99 1005.24 1005.60 1006.04
1020.31 1019.87 1019.44 1019.02 1018.59 1018.16 1017.71 1017.24 1016.76 1016.27 1015.79 1015.32 1014.89 1014.50 1014.16 1013.86 1013.61 1013.38 1013.15 1012.90 1012.60 1012.22 1011.74 1011.16 1010.49 1009.73 1008.91 1008.08 1007.28 1006.55 1005.94 1005.47 1005.17 1005.04 1005.09 1005.29 1005.60 1006.01
1020.39 1019.95 1019.53 1019.12 1018.70 1018.27 1017.83 1017.37 1016.90 1016.42 1015.93 1015.46 1015.02 1014.62 1014.26 1013.95 1013.69 1013.45 1013.23 1012.99 1012.71 1012.37 1011.94 1011.42 1010.81 1010.12 1009.37 1008.59 1007.83 1007.12 1006.51 1006.03 1005.71 1005.54 1005.53 1005.68 1005.94 1006.28
1020.49 1020.06 1019.64 1019.23 1018.81 1018.39 1017.95 1017.50 1017.03 1016.55 1016.07 1015.60 1015.16 1014.75 1014.38 1014.06 1013.79 1013.56 1013.35 1013.14 1012.90 1012.62 1012.27 1011.83 1011.32 1010.72 1010.06 1009.37 1008.68 1008.03 1007.45 1006.98 1006.64 1006.44 1006.38 1006.46 1006.65 1006.92
1020.61 1020.19 1019.77 1019.36 1018.94 1018.51 1018.07 1017.63 1017.16 1016.69 1016.22 1015.76 1015.32 1014.92 1014.56 1014.25 1013.99 1013.77 1013.59 1013.42 1013.24 1013.03 1012.77 1012.44 1012.04 1011.56 1011.02 1010.44 1009.84 1009.26 1008.73 1008.28 1007.93 1007.70 1007.59 1007.60 1007.71 1007.88
1020.76 1020.35 1019.94 1019.52 1019.10 1018.67 1018.23 1017.79 1017.34 1016.88 1016.43 1015.99 1015.57 1015.18 1014.84 1014.55 1014.32 1014.13 1013.99 1013.87 1013.76 1013.63 1013.47 1013.25 1012.97 1012.61 1012.20 1011.73 1011.23 1010.72 1010.25 1009.82 1009.48 1009.22 1009.06 1009.00 1009.02 1009.11
1020.96 1020.55 1020.15 1019.73 1019.31 1018.89 1018.46 1018.02 1017.58 1017.14 1016.71 1016.30 1015.91 1015.55 1015.24 1014.98 1014.78 1014.63 1014.54 1014.47 1014.43 1014.38 1014.30 1014.19 1014.01 1013.77 1013.46 1013.10 1012.69 1012.26 1011.84 1011.44 1011.10 1010.82 1010.62 1010.50 1010.44 1010.45
1021.21 1020.82 1020.42 1020.00 1019.59 1019.17 1018.74 1018.31 1017.89 1017.47 1017.07 1016.68 1016.32 1016.00 1015.73 1015.50 1015.34 1015.23 1015.17 1015.15 1015.16 1015.17 1015.16 1015.12 1015.03 1014.88 1014.66 1014.38 1014.05 1013.68 1013.31 1012.94 1012.61 1012.32 1012.09 1011.93 1011.83 1011.77
1021.52 1021.14 1020.74 1020.34 1019.92 1019.49 1019.07 1018.65 1018.24 1017.84 1017.45 1017.09 1016.76 1016.47 1016.23 1016.04 1015.90 1015.82 1015.79 1015.80 1015.84 1015.88 1015.92 1015.92 1015.88 1015.79 1015.63 1015.41 1015.13 1014.82 1014.49 1014.16 1013.84 1013.57 1013.34 1013.15 1013.03 1012.94
Thickness
5539 5534 5528 5523 5517 5512 5508 5503 5502 5507 5509 5501 5493 5487 5481 5478 5475 5473 5470 5468 5466 5464 5462 5461 5460 5460 5460 5461 5462 5464 5466 5469 5473 5478 5483 5489 5495 5502
5523 5518 5513 5508 5503 5498 5493 5488 5484 5483 5488 5485 5478 5472 5468 5465 5462 5459 5456 5453 5451 5449 5447 5446 5445 5445 5445 5445 5447 5448 5450 5453 5456 5461 5467 5473 5479 5486
5507 5503 5498 5493 5489 5484 5479 5475 5470 5466 5468 5471 5463 5459 5454 5451 5450 5446 5443 5441 5439 5437 5436 5435 5435 5435 5435 5435 5437 5438 5439 5441 5445 5449 5453 5459 5465 5472
5492 5487 5483 5480 5475 5471 5466 5462 5457 5453 5451 5455 5453 5448 5444 5440 5438 5435 5433 5431 5430 5430 5429 5429 5429 5429 5429 5430 5430 5431 5432 5434 5436 5439 5443 5449 5454 5460
5477 5473 5470 5466 5463 5458 5454 5450 5447 5444 5440 5439 5440 5437 5434 5431 5430 5428 5426 5425 5425 5425 5426 5426 5426 5426 5426 5426 5426 5427 5427 5429 5430 5432 5435 5439 5444 5450
5464 5460 5457 5454 5451 5448 5445 5441 5438 5435 5432 5430 5430 5429 5427 5426 5424 5423 5424 5423 5422 5423 5423 5423 5423 5422 5422 5423 5423 5424 5424 5424 5425 5427 5429 5432 5436 5441
5451 5448 5446 5444 5443 5439 5437 5434 5430 5428 5426 5424 5424 5424 5424 5423 5421 5420 5420 5421 5421 5421 5421 5420 5420 5420 5420 5420 5421 5421 5421 5422 5422 5423 5424 5426 5430 5434
5439 5437 5435 5434 5431 5429 5427 5425 5423 5421 5420 5419 5420 5420 5420 5419 5419 5418 5417 5418 5419 5419 5416 5417 5417 5418 5419 5419 5419 5419 5418 5419 5419 5420 5421 5423 5425 5429
5429 5427 5426 5425 5422 5420 5419 5418 5417 5416 5415 5415 5416 5417 5417 5417 5416 5416 5414 5413 5414 5414 5413 5415 5416 5416 5417 5418 5417 5417 5417 5417 5417 5418 5419 5421 5422 5425
5420 5419 5417 5417 5416 5414 5414 5414 5414 5414 5414 5414 5415 5416 5416 5415 5413 5412 5411 5411 5412 5413 5410 5411 5413 5414 5416 5416 5416 5415 5415 5416 5416 5417 5418 5419 5420 5422
5413 5412 5412 5411 5410 5409 5410 5411 5413 5415 5416 5416 5416 5416 5416 5415 5413 5411 5411 5410 5411 5412 5408 5406 5409 5410 5413 5415 5415 5414 5414 5414 5415 5416 5417 5418 5419 5420
5406 5407 5407 5406 5406 5407 5408 5409 5412 5414 5416 5417 5418 5418 5417 5415 5413 5410 5409 5408 5408 5409 5406 5403 5405 5405 5409 5412 5413 5413 5413 5413 5414 5415 5416 5417 5418 5419
5399 5401 5402 5403 5404 5406 5407 5409 5411 5413 5415 5417 5418 5418 5417 5416 5413 5411 5408 5406 5405 5404 5402 5401 5402 5402 5402 5406 5410 5411 5412 5413 5414 5415 5416 5418 5418 5420
5393 5395 5398 5400 5403 5406 5408 5410 5412 5414 5416 5417 5418 5418 5417 5415 5413 5411 5409 5406 5404 5402 5400 5399 5399 5399 5400 5403 5406 5409 5411 5412 5413 5415 5417 5418 5419 5421
5390 5392 5396 5399 5403 5406 5409 5411 5413 5415 5416 5417 5417 5416 5415 5413 5412 5411 5410 5408 5406 5403 5401 5399 5397 5397 5398 5400 5402 5405 5408 5411 5413 5416 5418 5420 5421 5422
5388 5391 5395 5399 5403 5406 5409 5412 5413 5414 5415 5415 5415 5414 5414 5413 5412 5410 5409 5407 5406 5404 5402 5399 5398 5396 5397 5398 5400 5403 5405 5409 5412 5416 5418 5420 5421 5422
5386 5391 5395 5398 5402 5405 5409 5411 5413 5414 5414 5414 5413 5413 5412 5411 5410 5409 5407 5406 5404 5402 5400 5400 5399 5398 5395 5395 5400 5401 5404 5407 5409 5413 5416 5418 5419 5420
5386 5389 5393 5396 5400 5403 5406 5409 5412 5413 5413 5413 5412 5412 5411 5410 5409 5408 5406 5405 5403 5400 5399 5398 5399 5401 5400 5399 5395 5399 5402 5404 5406 5410 5414 5416 5417 5418
5385 5388 5391 5395 5398 5402 5405 5408 5410 5411 5412 5412 5412 5411 5410 5409 5408 5407 5405 5404 5402 5400 5397 5397 5397 5398 5398 5396 5395 5394 5399 5401 5405 5407 5409 5411 5413 5414
5384 5387 5390 5394 5398 5401 5405 5407 5410 5411 5412 5412 5412 5411 5410 5409 5408 5406 5404 5402 5401 5399 5397 5396 5395 5394 5394 5392 5392 5391 5394 5399 5402 5404 5405 5407 5409 5411
5384 5387 5390 5394 5398 5401 5404 5407 5409 5411 5412 5413 5413 5413 5411 5410 5408 5406 5404 5401 5400 5398 5396 5394 5392 5392 5393 5394 5393 5392 5392 5394 5398 5401 5404 5408 5410 5411
5385 5388 5391 5395 5398 5402 5404 5407 5409 5411 5412 5413 5414 5414 5413 5411 5409 5407 5405 5403 5400 5398 5395 5393 5392 5393 5394 5393 5392 5391 5392 5393 5396 5398 5401 5404 5407 5407
5386 5389 5393 5396 5399 5402 5405 5408 5410 5412 5413 5414 5415 5416 5416 5414 5411 5409 5406 5404 5401 5399 5396 5394 5393 5392 5392 5391 5390 5390 5391 5392 5394 5396 5396 5396 5399 5400